This is the latest recevied weather packets stored in our database for station/object 4S6DRJ-13. If no packets are shown the sender has not sent any weather packets the latest 10 day(s).
| Time | Temp. | Humidity | Pressure | Rain* | Wind** | Luminosity | Snow |
|---|---|---|---|---|---|---|---|
| 1787774841 | 25.56° C | 95% | 1009.9 hPa | 0.51 mm | 0.89 m/s, 83° | 0 W/m² | - |
| 1787774780 | 25.56° C | 95% | 1009.9 hPa | 0.51 mm | 0.45 m/s, 128° | 0 W/m² | - |
| 1787774719 | 25.56° C | 95% | 1010 hPa | 0.51 mm | 0.45 m/s, 161° | 0 W/m² | - |
| 1787774658 | 25.56° C | 95% | 1010 hPa | 0.51 mm | 0.45 m/s, 120° | 0 W/m² | - |
| 1787774597 | 25.56° C | 95% | 1010.1 hPa | 0.51 mm | 0 m/s | 0 W/m² | - |
| 1787774536 | 25.56° C | 95% | 1009.9 hPa | 0.51 mm | 1.34 m/s, 106° | 0 W/m² | - |
| 1787774475 | 25.56° C | 95% | 1010.2 hPa | 0.51 mm | 1.34 m/s, 115° | 0 W/m² | - |
| 1787774414 | 25.56° C | 95% | 1010 hPa | 0.51 mm | 0.45 m/s, 156° | 0 W/m² | - |
| 1787774354 | 25.56° C | 95% | 1010 hPa | 0.51 mm | 0.89 m/s, 119° | 0 W/m² | - |
| 1787774292 | 25.56° C | 95% | 1010 hPa | 0.51 mm | 0.45 m/s, 105° | 0 W/m² | - |
| 1787774231 | 25.56° C | 95% | 1009.8 hPa | 0.51 mm | 0 m/s | 0 W/m² | - |
| 1787774170 | 25.56° C | 95% | 1010.1 hPa | 0.51 mm | 0.45 m/s, 168° | 0 W/m² | - |
| 1787774109 | 25.56° C | 95% | 1009.9 hPa | 0.51 mm | 1.34 m/s, 100° | 0 W/m² | - |
| 1787774048 | 25.56° C | 95% | 1009.8 hPa | 0.51 mm | 1.34 m/s, 108° | 0 W/m² | - |
| 1787773987 | 25.56° C | 95% | 1010 hPa | 0.51 mm | 0.89 m/s, 118° | 0 W/m² | - |
| 1787773926 | 25.56° C | 95% | 1010.1 hPa | 0.51 mm | 0.89 m/s, 116° | 0 W/m² | - |
| 1787773865 | 25.56° C | 95% | 1010.2 hPa | 0.51 mm | 0.89 m/s, 121° | 0 W/m² | - |
| 1787773804 | 25.56° C | 95% | 1010 hPa | 0.51 mm | 0.45 m/s, 134° | 0 W/m² | - |
| 1787773743 | 25.56° C | 95% | 1010 hPa | 0.51 mm | 0.45 m/s, 115° | 0 W/m² | - |
| 1787773682 | 25.56° C | 95% | 1010.2 hPa | 0.51 mm | 0.45 m/s, 131° | 0 W/m² | - |
| 1787773621 | 25.56° C | 95% | 1009.9 hPa | 0.51 mm | 0.45 m/s, 123° | 0 W/m² | - |
| 1787773560 | 25.56° C | 95% | 1010.2 hPa | 0.51 mm | 1.34 m/s, 122° | 0 W/m² | - |
| 1787773499 | 25.56° C | 95% | 1010 hPa | 0.51 mm | 0.45 m/s, 127° | 0 W/m² | - |
| 1787773438 | 25.56° C | 95% | 1010 hPa | 0.51 mm | 0.89 m/s, 150° | 0 W/m² | - |
| 1787773377 | 25.56° C | 95% | 1010.1 hPa | 0.51 mm | 0 m/s | 0 W/m² | - |
* Rain latest hour (hover to see other rain measurements)
** Current wind speed in m/s (hover to see current wind gust speed)